Location: Cosy Dell
(34.2789°N, 117.4537°W)
Time: 21:12:23
(UTC+00:00)

SAR-Lupe-2 - Pass Details

Date: 14 July 2020
Orbit: 482 x 484 km, 98.1° (Epoch: 09 August)

Event Time Altitude Azimuth Distance (km) Brightness Sun altitude
Rises 05:21:49 0° 6° (N) 2,549 7.9 -23.2°
Reaches altitude 10° 05:23:56 10° 1° (N) 1,665 6.9 -23.5°
Maximum altitude 05:27:24 50° 285° (WNW) 620 4.3 -23.9°
Enters shadow 05:27:28 50° 280° (W) 621 4.3 -23.9°
